| time (UTC) | temp C | wind direction | speed KPH | gust KPH | rain 1hr cm | rain 24hr cm | rain mn cm | humidity % | barometer mb |
| 20260504000529 | 12 | 212 | 14.5 | 20.9 | 0.00 | 0.00 | 0.00 | 49 | 1012.7 |
| 20260504000031 | 13 | 207 | 11.3 | 20.9 | 0.00 | 0.00 | 0.00 | 49 | 1012.7 |
| 20260503235534 | 13 | 227 | 14.5 | 19.3 | 0.00 | 0.00 | 0.00 | 48 | 1012.8 |
| 20260503235028 | 13 | 300 | 11.3 | 20.9 | 0.00 | 0.00 | 0.00 | 48 | 1012.8 |
| 20260503234534 | 13 | 225 | 11.3 | 24.1 | 0.00 | 0.00 | 0.00 | 48 | 1012.8 |
| 20260503234028 | 13 | 250 | 11.3 | 24.1 | 0.00 | 0.00 | 0.00 | 48 | 1012.8 |
| 20260503233527 | 13 | 227 | 12.9 | 27.4 | 0.00 | 0.00 | 0.00 | 47 | 1012.8 |
| 20260503233036 | 13 | 225 | 14.5 | 27.4 | 0.00 | 0.00 | 0.00 | 47 | 1012.9 |
| 20260503232527 | 13 | 244 | 16.1 | 27.4 | 0.00 | 0.00 | 0.00 | 46 | 1012.8 |
| 20260503232027 | 13 | 207 | 9.7 | 17.7 | 0.00 | 0.00 | 0.00 | 47 | 1012.8 |
| 20260503231532 | 13 | 233 | 11.3 | 19.3 | 0.00 | 0.00 | 0.00 | 47 | 1012.8 |
| 20260503231029 | 13 | 212 | 6.4 | 20.9 | 0.00 | 0.00 | 0.00 | 46 | 1012.9 |
| 20260503230530 | 13 | 232 | 12.9 | 20.9 | 0.00 | 0.00 | 0.00 | 46 | 1012.8 |
| 20260503230026 | 13 | 191 | 8.0 | 17.7 | 0.00 | 0.00 | 0.00 | 48 | 1013.0 |
| 20260503225525 | 13 | 227 | 8.0 | 17.7 | 0.00 | 0.00 | 0.00 | 46 | 1013.0 |
| 20260503225025 | 13 | 288 | 9.7 | 25.7 | 0.00 | 0.00 | 0.00 | 47 | 1012.9 |
| 20260503224525 | 13 | 201 | 12.9 | 17.7 | 0.00 | 0.00 | 0.00 | 45 | 1013.0 |
| 20260503224027 | 13 | 221 | 11.3 | 17.7 | 0.00 | 0.00 | 0.00 | 45 | 1013.0 |
| 20260503223525 | 13 | 194 | 8.0 | 22.5 | 0.00 | 0.00 | 0.00 | 46 | 1013.0 |
| 20260503223024 | 13 | 273 | 12.9 | 22.5 | 0.00 | 0.00 | 0.00 | 45 | 1013.0 |
| 20260503222523 | 13 | 239 | 9.7 | 19.3 | 0.00 | 0.00 | 0.00 | 46 | 1013.0 |
| 20260503222023 | 13 | 244 | 6.4 | 22.5 | 0.00 | 0.00 | 0.00 | 47 | 1013.0 |
| 20260503221529 | 13 | 263 | 9.7 | 27.4 | 0.00 | 0.00 | 0.00 | 45 | 1013.0 |
| 20260503221023 | 13 | 201 | 16.1 | 29.0 | 0.00 | 0.00 | 0.00 | 45 | 1013.1 |
| 20260503220523 | 13 | 219 | 11.3 | 33.8 | 0.00 | 0.00 | 0.00 | 44 | 1013.0 |
| 20260503220023 | 13 | 205 | 19.3 | 33.8 | 0.00 | 0.00 | 0.00 | 44 | 1013.0 |
| 20260503215523 | 13 | 207 | 14.5 | 27.4 | 0.00 | 0.00 | 0.00 | 45 | 1013.0 |
| 20260503215024 | 13 | 220 | 12.9 | 22.5 | 0.00 | 0.00 | 0.00 | 45 | 1013.0 |
| 20260503214522 | 13 | 265 | 8.0 | 22.5 | 0.00 | 0.00 | 0.00 | 45 | 1013.1 |
| 20260503214023 | 13 | 232 | 8.0 | 22.5 | 0.00 | 0.00 | 0.00 | 46 | 1012.9 |
| 20260503213522 | 13 | 246 | 14.5 | 33.8 | 0.00 | 0.00 | 0.00 | 44 | 1012.8 |
| 20260503213023 | 13 | 219 | 24.1 | 35.4 | 0.00 | 0.00 | 0.00 | 43 | 1012.8 |
| 20260503212522 | 14 | 249 | 9.7 | 25.7 | 0.00 | 0.00 | 0.00 | 43 | 1012.7 |
| 20260503212021 | 14 | 229 | 16.1 | 25.7 | 0.00 | 0.00 | 0.00 | 44 | 1012.7 |
| 20260503211522 | 13 | 234 | 12.9 | 29.0 | 0.00 | 0.00 | 0.00 | 44 | 1012.7 |
| 20260503211023 | 14 | 225 | 17.7 | 29.0 | 0.00 | 0.00 | 0.00 | 44 | 1012.8 |
| 20260503210520 | 14 | 219 | 16.1 | 24.1 | 0.00 | 0.00 | 0.00 | 44 | 1012.8 |
| 20260503210020 | 15 | 229 | 11.3 | 24.1 | 0.00 | 0.00 | 0.00 | 42 | 1012.7 |
| 20260503205520 | 15 | 215 | 9.7 | 24.1 | 0.00 | 0.00 | 0.00 | 45 | 1012.8 |
| 20260503205020 | 15 | 302 | 11.3 | 24.1 | 0.00 | 0.00 | 0.00 | 44 | 1012.8 |
| 20260503204523 | 14 | 346 | 9.7 | 24.1 | 0.00 | 0.00 | 0.00 | 44 | 1012.8 |
| 20260503204018 | 14 | 249 | 9.7 | 41.8 | 0.00 | 0.00 | 0.00 | 44 | 1013.0 |
| 20260503203518 | 14 | 208 | 20.9 | 41.8 | 0.00 | 0.00 | 0.00 | 42 | 1012.8 |
| 20260503203017 | 14 | 249 | 16.1 | 30.6 | 0.00 | 0.00 | 0.00 | 43 | 1013.0 |
| 20260503202516 | 15 | 239 | 16.1 | 35.4 | 0.00 | 0.00 | 0.00 | 43 | 1013.1 |
| 20260503202016 | 15 | 244 | 20.9 | 33.8 | 0.00 | 0.00 | 0.00 | 42 | 1013.2 |
| 20260503201515 | 14 | 236 | 9.7 | 24.1 | 0.00 | 0.00 | 0.00 | 45 | 1013.2 |
| 20260503201015 | 14 | 241 | 11.3 | 22.5 | 0.00 | 0.00 | 0.00 | 44 | 1013.3 |
| 20260503200516 | 14 | 284 | 16.1 | 22.5 | 0.00 | 0.00 | 0.00 | 45 | 1013.6 |
| 20260503200013 | 14 | 236 | 12.9 | 30.6 | 0.00 | 0.00 | 0.00 | 44 | 1013.6 |
| 20260503195512 | 14 | 200 | 16.1 | 35.4 | 0.00 | 0.00 | 0.00 | 43 | 1013.6 |
| 20260503195015 | 15 | 256 | 11.3 | 32.2 | 0.00 | 0.00 | 0.00 | 48 | 1013.6 |
| 20260503194510 | 13 | 226 | 16.1 | 32.2 | 0.00 | 0.00 | 0.00 | 46 | 1013.7 |
| 20260503194010 | 13 | 233 | 20.9 | 32.2 | 0.00 | 0.00 | 0.00 | 44 | 1013.7 |
| 20260503193509 | 14 | 219 | 22.5 | 38.6 | 0.00 | 0.00 | 0.00 | 43 | 1013.9 |
| 20260503193008 | 14 | 222 | 22.5 | 38.6 | 0.00 | 0.00 | 0.00 | 46 | 1013.8 |
| 20260503192506 | 14 | 222 | 12.9 | 29.0 | 0.00 | 0.00 | 0.00 | 49 | 1014.0 |
| 20260503192009 | 13 | 254 | 12.9 | 27.4 | 0.00 | 0.00 | 0.00 | 45 | 1014.0 |
| 20260503191505 | 13 | 238 | 11.3 | 22.5 | 0.00 | 0.00 | 0.00 | 45 | 1014.0 |
| 20260503191005 | 13 | 225 | 11.3 | 22.5 | 0.00 | 0.00 | 0.00 | 47 | 1014.2 |
| 20260503190504 | 13 | 202 | 12.9 | 27.4 | 0.00 | 0.00 | 0.00 | 46 | 1014.2 |
| 20260503190005 | 13 | 227 | 17.7 | 27.4 | 0.00 | 0.00 | 0.00 | 44 | 1014.3 |
| 20260503185503 | 14 | 215 | 16.1 | 27.4 | 0.00 | 0.00 | 0.00 | 46 | 1014.3 |
| 20260503185002 | 13 | 238 | 12.9 | 25.7 | 0.00 | 0.00 | 0.00 | 45 | 1014.4 |
| 20260503184601 | 13 | 231 | 12.9 | 25.7 | 0.00 | 0.00 | 0.00 | 48 | 1014.3 |
| 20260503184100 | 13 | 210 | 12.9 | 25.7 | 0.00 | 0.00 | 0.00 | 47 | 1014.6 |
| 20260503183559 | 13 | 220 | 12.9 | 29.0 | 0.00 | 0.00 | 0.00 | 47 | 1014.5 |
| 20260503183100 | 13 | 208 | 14.5 | 27.4 | 0.00 | 0.00 | 0.00 | 47 | 1014.5 |
| 20260503182558 | 13 | 215 | 9.7 | 27.4 | 0.00 | 0.00 | 0.00 | 46 | 1014.6 |
| 20260503182057 | 13 | 269 | 14.5 | 27.4 | 0.00 | 0.00 | 0.00 | 47 | 1014.9 |
| 20260503181555 | 13 | 302 | 16.1 | 32.2 | 0.00 | 0.00 | 0.00 | 46 | 1014.9 |
| 20260503181054 | 12 | 207 | 17.7 | 32.2 | 0.00 | 0.00 | 0.00 | 49 | 1014.9 |
| 20260503180554 | 12 | 219 | 14.5 | 27.4 | 0.00 | 0.00 | 0.00 | 49 | 1015.0 |
| 20260503180100 | 12 | 229 | 17.7 | 24.1 | 0.00 | 0.00 | 0.00 | 47 | 1015.1 |
| 20260503175553 | 12 | 260 | 9.7 | 27.4 | 0.00 | 0.00 | 0.00 | 47 | 1015.2 |
| 20260503175052 | 12 | 247 | 9.7 | 29.0 | 0.00 | 0.00 | 0.00 | 48 | 1015.3 |
| 20260503174558 | 12 | 204 | 16.1 | 41.8 | 0.00 | 0.00 | 0.00 | 49 | 1015.3 |
| 20260503174052 | 12 | 257 | 20.9 | 41.8 | 0.00 | 0.00 | 0.00 | 46 | 1015.3 |
| 20260503173552 | 12 | 237 | 8.0 | 33.8 | 0.00 | 0.00 | 0.00 | 48 | 1015.2 |
| 20260503173051 | 12 | 264 | 11.3 | 37.0 | 0.00 | 0.00 | 0.00 | 49 | 1015.3 |
| 20260503172548 | 12 | 193 | 20.9 | 37.0 | 0.00 | 0.00 | 0.00 | 48 | 1015.3 |
| 20260503172047 | 12 | 284 | 11.3 | 27.4 | 0.00 | 0.00 | 0.00 | 48 | 1015.5 |
| 20260503171550 | 12 | 234 | 14.5 | 29.0 | 0.00 | 0.00 | 0.00 | 48 | 1015.6 |
| 20260503171045 | 12 | 286 | 20.9 | 29.0 | 0.00 | 0.00 | 0.00 | 48 | 1015.6 |
| 20260503170544 | 12 | 217 | 11.3 | 25.7 | 0.00 | 0.00 | 0.00 | 49 | 1015.7 |
| 20260503150528 | 9 | 226 | 17.7 | 27.4 | 0.00 | 0.03 | 0.00 | 52 | 1017.0 |
| 20260503131003 | 5 | 247 | 6.4 | 19.3 | 0.00 | 0.03 | 0.00 | 71 | 1017.5 |
| 20260503130502 | 5 | 317 | 8.0 | 19.3 | 0.00 | 0.03 | 0.00 | 72 | 1017.6 |
| 20260503110540 | 0 | 360 | 0.0 | 0.0 | 0.00 | 0.05 | 0.00 | 90 | 1017.1 |
| 20260503081531 | 0 | 360 | 0.0 | 0.0 | 0.00 | 0.05 | 0.00 | 89 | 1016.8 |
| 20260503081032 | 0 | 360 | 0.0 | 3.2 | 0.00 | 0.05 | 0.00 | 89 | 1016.8 |
| 20260503080530 | 0 | 360 | 1.6 | 4.8 | 0.00 | 0.05 | 0.00 | 90 | 1016.9 |
| 20260503072526 | 0 | 360 | 1.6 | 4.8 | 0.00 | 0.05 | 0.00 | 89 | 1016.9 |
| 20260503072025 | 0 | 360 | 1.6 | 4.8 | 0.00 | 0.05 | 0.00 | 88 | 1016.8 |
| 20260503071524 | 0 | 360 | 1.6 | 4.8 | 0.00 | 0.05 | 0.00 | 89 | 1016.8 |
| 20260503071025 | 0 | 360 | 1.6 | 4.8 | 0.00 | 0.05 | 0.00 | 89 | 1016.8 |
| 20260503070527 | 0 | 360 | 1.6 | 4.8 | 0.00 | 0.05 | 0.00 | 89 | 1016.8 |
| 20260503055014 | 0 | 360 | 0.0 | 3.2 | 0.00 | 0.05 | 0.00 | 85 | 1017.2 |
| 20260503054514 | 0 | 360 | 1.6 | 3.2 | 0.00 | 0.05 | 0.00 | 84 | 1017.2 |
| 20260503054015 | 0 | 360 | 1.6 | 3.2 | 0.00 | 0.05 | 0.00 | 84 | 1017.3 |
| 20260503053513 | 0 | 360 | 0.0 | 4.8 | 0.00 | 0.05 | 0.00 | 85 | 1017.4 |
| 20260503053012 | 0 | 360 | 1.6 | 4.8 | 0.00 | 0.05 | 0.00 | 85 | 1017.4 |
| 20260503052512 | 0 | 360 | 1.6 | 4.8 | 0.00 | 0.05 | 0.00 | 85 | 1017.4 |
| 20260503052015 | 0 | 360 | 1.6 | 4.8 | 0.00 | 0.05 | 0.00 | 84 | 1017.3 |
| 20260503051510 | 0 | 360 | 1.6 | 4.8 | 0.00 | 0.05 | 0.00 | 84 | 1017.4 |
| 20260503051009 | 1 | 360 | 0.0 | 3.2 | 0.00 | 0.05 | 0.00 | 83 | 1017.4 |
| 20260503050507 | 1 | 360 | 1.6 | 3.2 | 0.00 | 0.05 | 0.00 | 83 | 1017.4 |
| 20260503050020 | 1 | 360 | 1.6 | 3.2 | 0.00 | 0.05 | 0.00 | 83 | 1017.5 |
| 20260503045509 | 1 | 360 | 1.6 | 4.8 | 0.00 | 0.05 | 0.00 | 83 | 1017.5 |
| 20260503045009 | 1 | 360 | 0.0 | 4.8 | 0.00 | 0.05 | 0.00 | 84 | 1017.6 |
| 20260503044506 | 1 | 360 | 1.6 | 3.2 | 0.00 | 0.05 | 0.00 | 84 | 1017.6 |
| 20260503044004 | 1 | 360 | 0.0 | 3.2 | 0.00 | 0.05 | 0.00 | 83 | 1017.6 |
| 20260503043504 | 1 | 360 | 1.6 | 3.2 | 0.00 | 0.05 | 0.00 | 83 | 1017.6 |
| 20260503043007 | 1 | 360 | 0.0 | 3.2 | 0.00 | 0.05 | 0.00 | 83 | 1017.6 |
| 20260503042503 | 1 | 360 | 1.6 | 3.2 | 0.00 | 0.05 | 0.00 | 84 | 1017.7 |
| 20260503042003 | 1 | 360 | 1.6 | 3.2 | 0.00 | 0.05 | 0.00 | 83 | 1017.7 |
| 20260503041502 | 1 | 360 | 1.6 | 3.2 | 0.00 | 0.05 | 0.00 | 83 | 1017.6 |
| 20260503041002 | 1 | 360 | 1.6 | 3.2 | 0.00 | 0.05 | 0.00 | 83 | 1017.6 |
| 20260503040600 | 1 | 360 | 1.6 | 3.2 | 0.00 | 0.05 | 0.00 | 83 | 1017.6 |
| 20260503040121 | 1 | 360 | 1.6 | 3.2 | 0.00 | 0.05 | 0.05 | 83 | 1017.6 |
| 20260503035600 | 1 | 360 | 1.6 | 4.8 | 0.00 | 0.05 | 0.05 | 82 | 1017.5 |
| 20260503035100 | 1 | 360 | 1.6 | 3.2 | 0.00 | 0.05 | 0.05 | 82 | 1017.5 |
| 20260503034600 | 1 | 360 | 1.6 | 4.8 | 0.00 | 0.05 | 0.05 | 82 | 1017.5 |
| 20260503034100 | 1 | 360 | 1.6 | 4.8 | 0.00 | 0.05 | 0.05 | 82 | 1017.7 |
| 20260503033559 | 1 | 360 | 1.6 | 3.2 | 0.00 | 0.05 | 0.05 | 81 | 1017.7 |
| 20260503033058 | 1 | 360 | 1.6 | 4.8 | 0.00 | 0.05 | 0.05 | 81 | 1017.7 |
| 20260503032558 | 1 | 360 | 1.6 | 4.8 | 0.00 | 0.05 | 0.05 | 81 | 1017.7 |
| 20260503032058 | 1 | 360 | 1.6 | 3.2 | 0.00 | 0.05 | 0.05 | 81 | 1017.7 |
| 20260503031606 | 1 | 360 | 1.6 | 4.8 | 0.00 | 0.05 | 0.05 | 80 | 1017.8 |
| 20260503031059 | 1 | 360 | 1.6 | 4.8 | 0.00 | 0.05 | 0.05 | 80 | 1017.7 |
| 20260503030558 | 2 | 360 | 1.6 | 4.8 | 0.00 | 0.05 | 0.05 | 79 | 1017.8 |
| 20260503030058 | 2 | 360 | 1.6 | 3.2 | 0.00 | 0.05 | 0.05 | 79 | 1017.9 |
| 20260503025557 | 2 | 360 | 1.6 | 3.2 | 0.00 | 0.05 | 0.05 | 79 | 1017.8 |
| 20260503025057 | 2 | 360 | 0.0 | 3.2 | 0.00 | 0.05 | 0.05 | 78 | 1017.9 |
| 20260503024557 | 2 | 360 | 0.0 | 1.6 | 0.00 | 0.05 | 0.05 | 78 | 1017.9 |
| 20260503024100 | 2 | 360 | 0.0 | 1.6 | 0.00 | 0.05 | 0.05 | 78 | 1018.0 |
| 20260503023559 | 2 | 360 | 0.0 | 0.0 | 0.00 | 0.05 | 0.05 | 79 | 1018.1 |
| 20260503023057 | 2 | 360 | 0.0 | 0.0 | 0.00 | 0.05 | 0.05 | 79 | 1018.1 |
| 20260503022556 | 2 | 360 | 0.0 | 0.0 | 0.00 | 0.05 | 0.05 | 78 | 1018.1 |
| 20260503022059 | 2 | 360 | 0.0 | 1.6 | 0.00 | 0.05 | 0.05 | 78 | 1018.1 |
| 20260503021556 | 2 | 360 | 0.0 | 1.6 | 0.00 | 0.05 | 0.05 | 78 | 1018.1 |
| 20260503021056 | 2 | 360 | 0.0 | 0.0 | 0.00 | 0.05 | 0.05 | 78 | 1018.0 |
| 20260503020556 | 2 | 360 | 0.0 | 1.6 | 0.00 | 0.05 | 0.05 | 78 | 1018.0 |
| 20260503020056 | 2 | 360 | 0.0 | 1.6 | 0.00 | 0.05 | 0.05 | 77 | 1018.0 |
| 20260503015655 | 3 | 360 | 0.0 | 1.6 | 0.00 | 0.05 | 0.05 | 77 | 1018.0 |
| 20260503015055 | 3 | 360 | 0.0 | 0.0 | 0.00 | 0.05 | 0.05 | 77 | 1018.1 |
| 20260503014609 | 3 | 360 | 0.0 | 1.6 | 0.00 | 0.05 | 0.05 | 77 | 1018.0 |
| 20260503014055 | 3 | 360 | 0.0 | 1.6 | 0.00 | 0.05 | 0.05 | 76 | 1018.0 |
| 20260503013555 | 3 | 360 | 0.0 | 1.6 | 0.00 | 0.05 | 0.05 | 75 | 1018.0 |
| 20260503013054 | 3 | 360 | 0.0 | 1.6 | 0.00 | 0.05 | 0.05 | 74 | 1017.9 |
| 20260503012555 | 3 | 360 | 0.0 | 1.6 | 0.00 | 0.05 | 0.05 | 73 | 1017.9 |
| 20260503012056 | 3 | 360 | 0.0 | 1.6 | 0.00 | 0.05 | 0.05 | 72 | 1018.2 |
| 20260503011558 | 3 | 360 | 0.0 | 3.2 | 0.00 | 0.05 | 0.05 | 72 | 1017.9 |
| 20260503011054 | 3 | 360 | 0.0 | 3.2 | 0.00 | 0.05 | 0.05 | 72 | 1017.9 |
| 20260503010554 | 3 | 360 | 0.0 | 3.2 | 0.00 | 0.05 | 0.05 | 71 | 1017.9 |
| 20260503010054 | 3 | 360 | 0.0 | 4.8 | 0.00 | 0.05 | 0.05 | 71 | 1017.8 |
| 20260503005555 | 3 | 360 | 0.0 | 4.8 | 0.00 | 0.05 | 0.05 | 71 | 1017.9 |
| 20260503005055 | 3 | 360 | 0.0 | 3.2 | 0.00 | 0.05 | 0.05 | 70 | 1017.8 |
| 20260503004554 | 3 | 360 | 0.0 | 4.8 | 0.00 | 0.05 | 0.05 | 70 | 1017.8 |
| 20260503004057 | 3 | 360 | 1.6 | 4.8 | 0.00 | 0.05 | 0.05 | 69 | 1017.8 |
| 20260503003554 | 3 | 360 | 0.0 | 4.8 | 0.00 | 0.05 | 0.05 | 69 | 1017.7 |
| 20260503003052 | 3 | 360 | 1.6 | 4.8 | 0.00 | 0.05 | 0.05 | 69 | 1017.7 |
| 20260503002555 | 3 | 360 | 1.6 | 6.4 | 0.00 | 0.05 | 0.05 | 69 | 1017.7 |
| 20260503002052 | 3 | 360 | 0.0 | 6.4 | 0.00 | 0.05 | 0.05 | 68 | 1017.6 |
| 20260503001604 | 3 | 360 | 3.2 | 8.0 | 0.00 | 0.05 | 0.05 | 68 | 1017.6 |
| 20260503001052 | 3 | 360 | 4.8 | 8.0 | 0.00 | 0.05 | 0.05 | 68 | 1017.7 |